Regional Weather Roundup
Issued by NWS

Home | Current Version | Previous Version | Text Only | Print | Product List | Glossary On
Versions: 1 2 3 4 5 6 7 8 9 10 11 12 13 14 15 16 17 18 19 20 21 22 23 24 25 26 27 28 29 30 31 32 33 34 35 36 37 38 39 40 41 42 43 44 45 46 47 48 49 50
000
ASUS43 KDTX 020410
RWRMI
MICHIGAN HOURLY REGIONAL WEATHER ROUNDUP
NATIONAL WEATHER SERVICE DETROIT/PONTIAC MI
1100 PM EST SUN MAR 01 2015

NOTE: "FAIR" INDICATES FEW OR NO CLOUDS BELOW 12,000 FEET WITH NO
SIGNIFICANT WEATHER AND/OR OBSTRUCTION TO VISIBILITY.

MIZ047>049-052>055-059>063-066>070-074>076-081>083-020500-
SOUTHEAST LOWER MICHIGAN

CITY           SKY/WX    TMP DP  RH WIND       PRES   REMARKS
ADRIAN         CLOUDY    23  16  74 W13       30.26R WCI  11
ALMA           FLURRIES  23  19  86 SW9       30.20R WCI  13
ANN ARBOR      CLOUDY    22  16  78 W10       30.23R WCI  11
BAD AXE        CLOUDY    23  18  81 W14       30.15S WCI  10
CARO           FLURRIES  24  17  75 W10G20    30.17S WCI  13
DETROIT CITY   CLOUDY    24  16  71 W7        30.22R WCI  16
DETROIT        CLOUDY    22  16  78 SW10      30.24R WCI  11
FLINT          CLOUDY    25  16  68 W16G24    30.21R WCI  12
GROSSE ILE     PTCLDY    19  16  86 W6        30.23R WCI  11
HILLSDALE      CLOUDY    22  18  82 W9        30.22R WCI  12
HOWELL         CLOUDY    23  17  78 W12G22    30.21R WCI  11

CITY           SKY/WX    TMP DP  RH WIND       PRES   REMARKS
JACKSON        CLOUDY    22  16  78 W7        30.22R WCI  13
LAMBERTVILLE   CLOUDY    21  18  86 W5        30.27R WCI  15
LANSING        CLOUDY    23  16  74 SW13      30.22R WCI  11
LAPEER         CLOUDY    24  16  71 W12G22    30.18S WCI  12
MASON          CLOUDY    23  16  75 W5        30.22R WCI  16
MONROE         MOCLDY    18  16  93 W8        30.24R WCI   7
MT. CLEMENS    CLOUDY    22  14  70 SW7       30.19R WCI  14
PONTIAC        CLOUDY    22  15  75 W10       30.18R WCI  11
PORT HOPE        N/A     22  15  75 VRB7      30.14R WCI  13
PORT HURON     MOCLDY    18  14  86 SW3       30.19S
TRI CITIES     LGT SNOW  24  18  77 SW10      30.19R WCI  14
TROY           CLOUDY    25  16  68 SW6       30.22S WCI  18
SAGINAW HB     FLURRIES  25  19  80 W12       30.19R WCI  14
$$
MIZ043>046-050>051-056>058-064>065-071>073-077>080-020500-
SOUTHWEST LOWER MICHIGAN

CITY           SKY/WX    TMP DP  RH WIND       PRES   REMARKS
BATTLE CREEK   CLOUDY    24  17  74 W13       30.24R WCI  12
BENTON HARBOR  CLOUDY    21  17  84 W13       30.30R WCI   9
BIG RAPIDS     LGT SNOW  24  21  90 W10       30.15S WCI  13
COLDWATER      CLOUDY    23  18  80 W13       30.25R WCI  11
FREMONT        LGT SNOW  26  19  77 W12G18    30.20R WCI  15
HOLLAND        CLOUDY    26  18  71 W15G24    30.26R WCI  14
GRAND RAPIDS   CLOUDY    24  18  77 W15       30.22R WCI  11
IONIA          FLURRIES  24  20  85 W13       30.20R WCI  12
KALAMAZOO      CLOUDY    24  17  74 W15       30.26R WCI  11
LUDINGTON      MOCLDY    26  13  59 NW9G18    30.22S WCI  16
MARSHALL       CLOUDY    22  17  78 W9        30.23R WCI  12
MOUNT PLEASANT   N/A     23  19  84 SW7       30.17S WCI  15
MUSKEGON       FLURRIES  28  18  66 W14G23    30.23R WCI  17
SOUTH HAVEN    CLOUDY    26  20  78 W9        30.28R WCI  16
$$
MIZ016>042-020500-
NORTHERN LOWER MICHIGAN

CITY           SKY/WX    TMP DP  RH WIND       PRES   REMARKS
ALPENA         CLOUDY    23  13  65 SW8       30.09F WCI  14
BEAVER ISLAND  MOCLDY    22  12  66 W10G16    30.11R WCI  11
BELLAIRE       CLOUDY    24  17  74 W6        30.15R WCI  16
CADILLAC       LGT SNOW  21  18  86 W18G28    30.10R WCI   6
CHARLEVOIX     LGT SNOW  22  17  82 W17G25    30.15R WCI   7
FRANKFORT      MOCLDY    23  14  69 NW15G21   30.19R WCI  10
GAYLORD        LGT SNOW  19  18  95 W16       30.05S VSB 1   WCI   4
GRAYLING       LGT SNOW  21  17  86 W6        30.09S WCI  13
HARBOR SPRINGS CLOUDY    22  18  85 W9        30.09S WCI  12
HOUGHTON LAKE  LGT SNOW  20  16  84 SW10      30.10S FOG     WCI   9
MANISTEE       CLOUDY    25  10  54 NW20G26   30.21R WCI  11
OSCODA         CLOUDY    22  15  73 W10G16    30.12F WCI  11
PELLSTON       LGT SNOW  23  17  78 W17G24    30.09R WCI   9
ROGERS CITY    CLOUDY    23  17  77 SW8       30.09S WCI  14
TRAVERSE CITY  CLOUDY    23  13  65 W16G25    30.15R WCI  10
$$
MIZ007>008-015-020500-
EASTERN UPPER MICHIGAN

CITY           SKY/WX    TMP DP  RH WIND       PRES   REMARKS
KINROSS        CLOUDY    21  21 100 W10       30.04R WCI  10
MACKINAC ISLAN LGT SNOW  23  19  86 W15G21    30.06R WCI  10
NEWBERRY       FLURRIES  18  16  91 W9        30.06R WCI   7
S. S. MARIE    LGT SNOW  20  16  84 NW8       30.05R FOG     WCI  10
MUNISING         N/A     23   7  50 VRB6      30.09R WCI  16
$$
MIZ004>006-011>014-085-020500-
CENTRAL UPPER MICHIGAN

CITY           SKY/WX    TMP DP  RH WIND       PRES   REMARKS
MANISTIQUE     CLOUDY    21  10  63 W3        30.10R
ESCANABA       CLOUDY    19   9  63 W5        30.15R WCI  13
MENOMINEE      PTCLDY    18   9  68 W8        30.17R WCI   7
SAWYER-GWINN   MOCLDY    16   7  66 W7        30.07R WCI   7
$$
MIZ001>003-009>011-084-020500-
WESTERN UPPER MICHIGAN

CITY           SKY/WX    TMP DP  RH WIND       PRES   REMARKS
IRON MOUNTAIN  CLEAR     17   4  56 W9        30.10R WCI   6
HOUGHTON       CLOUDY    19   9  65 NW24G35   30.08R WCI   2
COPPER HARBOR    N/A     20  11  68 N21G26    30.07R WCI   4
IRONWOOD       CLOUDY    21  10  63 W12G18    30.14R WCI   9
$$

ABBREVIATIONS USED IN REMARKS
   TC - TEMPERATURE IN CELSIUS
  WCI - WIND CHILL INDEX
   HX - HEAT INDEX
  VSB - VISIBILITY




USA.gov is the U.S. government's official web portal to all federal, state and local government web resources and services.